Year,Month,Day,Hour,Minute,Value (Times are PST for temperature in C)
2017,05,29,00,00,16.20
2017,05,29,00,01,16.20
2017,05,29,00,02,16.20
2017,05,29,00,03,16.20
2017,05,29,00,04,16.10
2017,05,29,00,05,16.10
2017,05,29,00,06,16.10
2017,05,29,00,07,16.10
2017,05,29,00,08,16.10
2017,05,29,00,09,16.00
2017,05,29,00,10,16.00
2017,05,29,00,11,16.00
2017,05,29,00,12,16.00
2017,05,29,00,13,16.00
2017,05,29,00,14,15.90
2017,05,29,00,15,15.90
2017,05,29,00,16,15.90
2017,05,29,00,17,15.80
2017,05,29,00,18,15.80
2017,05,29,00,19,15.80
2017,05,29,00,20,15.70
2017,05,29,00,21,15.70
2017,05,29,00,22,15.70
2017,05,29,00,23,15.70
2017,05,29,00,24,15.70
2017,05,29,00,25,15.70
2017,05,29,00,26,15.60
2017,05,29,00,27,15.60
2017,05,29,00,28,15.60
2017,05,29,00,29,15.60
2017,05,29,00,30,15.60
2017,05,29,00,31,15.60
2017,05,29,00,32,15.60
2017,05,29,00,33,15.50
2017,05,29,00,34,15.40
2017,05,29,00,35,15.40
2017,05,29,00,36,15.30
2017,05,29,00,37,15.30
2017,05,29,00,38,15.30
2017,05,29,00,39,15.20
2017,05,29,00,40,15.20
2017,05,29,00,41,15.10
2017,05,29,00,42,15.10
2017,05,29,00,43,15.10
2017,05,29,00,44,15.10
2017,05,29,00,45,15.10
2017,05,29,00,46,15.10
2017,05,29,00,47,15.10
2017,05,29,00,48,15.10
2017,05,29,00,49,15.10
2017,05,29,00,50,15.00
2017,05,29,00,51,15.00
2017,05,29,00,52,15.00
2017,05,29,00,53,15.00
2017,05,29,00,54,15.00
2017,05,29,00,55,14.90
2017,05,29,00,56,14.90
2017,05,29,00,57,14.90
2017,05,29,00,58,14.90
2017,05,29,00,59,14.80
2017,05,29,01,00,14.80
2017,05,29,01,01,14.80
2017,05,29,01,02,14.70
2017,05,29,01,03,14.70
2017,05,29,01,04,14.70
2017,05,29,01,05,14.70
2017,05,29,01,06,14.60
2017,05,29,01,07,14.60
2017,05,29,01,08,14.60
2017,05,29,01,09,14.60
2017,05,29,01,10,14.50
2017,05,29,01,11,14.50
2017,05,29,01,12,14.50
2017,05,29,01,13,14.40
2017,05,29,01,14,14.40
2017,05,29,01,15,14.40
2017,05,29,01,16,14.40
2017,05,29,01,17,14.30
2017,05,29,01,18,14.30
2017,05,29,01,19,14.30
2017,05,29,01,20,14.30
2017,05,29,01,21,14.30
2017,05,29,01,22,14.30
2017,05,29,01,23,14.20
2017,05,29,01,24,14.20
2017,05,29,01,25,14.20
2017,05,29,01,26,14.20
2017,05,29,01,27,14.10
2017,05,29,01,28,14.10
2017,05,29,01,29,14.10
2017,05,29,01,30,14.00
2017,05,29,01,31,14.00
2017,05,29,01,32,14.00
2017,05,29,01,33,13.90
2017,05,29,01,34,13.90
2017,05,29,01,35,13.90
2017,05,29,01,36,13.90
2017,05,29,01,37,13.80
2017,05,29,01,38,13.80
2017,05,29,01,39,13.80
2017,05,29,01,40,13.80
2017,05,29,01,41,13.80
2017,05,29,01,42,13.80
2017,05,29,01,43,13.80
2017,05,29,01,44,13.80
2017,05,29,01,45,13.70
2017,05,29,01,46,13.70
2017,05,29,01,47,13.70
2017,05,29,01,48,13.70
2017,05,29,01,49,13.60
2017,05,29,01,50,13.60
2017,05,29,01,51,13.60
2017,05,29,01,52,13.60
2017,05,29,01,53,13.60
2017,05,29,01,54,13.60
2017,05,29,01,55,13.70
2017,05,29,01,56,13.70
2017,05,29,01,57,13.70
2017,05,29,01,58,13.70
2017,05,29,01,59,13.70
2017,05,29,02,00,13.70
2017,05,29,02,01,13.70
2017,05,29,02,02,13.60
2017,05,29,02,03,13.60
2017,05,29,02,04,13.60
2017,05,29,02,05,13.60
2017,05,29,02,06,13.50
2017,05,29,02,07,13.50
2017,05,29,02,08,13.50
2017,05,29,02,09,13.60
2017,05,29,02,10,13.60
2017,05,29,02,11,13.60
2017,05,29,02,12,13.60
2017,05,29,02,13,13.70
2017,05,29,02,14,13.70
2017,05,29,02,15,13.70
2017,05,29,02,16,13.80
2017,05,29,02,17,13.80
2017,05,29,02,18,13.80
2017,05,29,02,19,13.80
2017,05,29,02,20,13.80
2017,05,29,02,21,13.90
2017,05,29,02,22,13.90
2017,05,29,02,23,13.90
2017,05,29,02,24,13.90
2017,05,29,02,25,13.90
2017,05,29,02,26,13.90
2017,05,29,02,27,13.90
2017,05,29,02,28,13.80
2017,05,29,02,29,13.80
2017,05,29,02,30,13.80
2017,05,29,02,31,13.80
2017,05,29,02,32,13.80
2017,05,29,02,33,13.70
2017,05,29,02,34,13.70
2017,05,29,02,35,13.60
2017,05,29,02,36,13.60
2017,05,29,02,37,13.60
2017,05,29,02,38,13.60
2017,05,29,02,39,13.60
2017,05,29,02,40,13.50
2017,05,29,02,41,13.50
2017,05,29,02,42,13.50
2017,05,29,02,43,13.50
2017,05,29,02,44,13.50
2017,05,29,02,45,13.50
2017,05,29,02,46,13.50
2017,05,29,02,47,13.50
2017,05,29,02,48,13.60
2017,05,29,02,49,13.60
2017,05,29,02,50,13.60
2017,05,29,02,51,13.60
2017,05,29,02,52,13.60
2017,05,29,02,53,13.70
2017,05,29,02,54,13.70
2017,05,29,02,55,13.70
2017,05,29,02,56,13.70
2017,05,29,02,57,13.60
2017,05,29,02,58,13.60
2017,05,29,02,59,13.60
2017,05,29,03,00,13.50
2017,05,29,03,01,13.50
2017,05,29,03,02,13.50
2017,05,29,03,03,13.50
2017,05,29,03,04,13.50
2017,05,29,03,05,13.50
2017,05,29,03,06,13.60
2017,05,29,03,07,13.60
2017,05,29,03,08,13.60
2017,05,29,03,09,13.60
2017,05,29,03,10,13.60
2017,05,29,03,11,13.60
2017,05,29,03,12,13.60
2017,05,29,03,13,13.50
2017,05,29,03,14,13.50
2017,05,29,03,15,13.40
2017,05,29,03,16,13.40
2017,05,29,03,17,13.30
2017,05,29,03,18,13.30
2017,05,29,03,19,13.30
2017,05,29,03,20,13.30
2017,05,29,03,21,13.30
2017,05,29,03,22,13.30
2017,05,29,03,23,13.30
2017,05,29,03,24,13.30
2017,05,29,03,25,13.40
2017,05,29,03,26,13.40
2017,05,29,03,27,13.40
2017,05,29,03,28,13.40
2017,05,29,03,29,13.40
2017,05,29,03,30,13.40
2017,05,29,03,31,13.40
2017,05,29,03,32,13.40
2017,05,29,03,33,13.40
2017,05,29,03,34,13.30
2017,05,29,03,35,13.30
2017,05,29,03,36,13.30
2017,05,29,03,37,13.30
2017,05,29,03,38,13.30
2017,05,29,03,39,13.30
2017,05,29,03,40,13.30
2017,05,29,03,41,13.30
2017,05,29,03,42,13.20
2017,05,29,03,43,13.20
2017,05,29,03,44,13.20
2017,05,29,03,45,13.20
2017,05,29,03,46,13.10
2017,05,29,03,47,13.10
2017,05,29,03,48,13.10
2017,05,29,03,49,13.10
2017,05,29,03,50,13.10
2017,05,29,03,51,13.10
2017,05,29,03,52,13.10
2017,05,29,03,53,13.00
2017,05,29,03,54,13.00
2017,05,29,03,55,13.00
2017,05,29,03,56,12.90
2017,05,29,03,57,12.90
2017,05,29,03,58,12.80
2017,05,29,03,59,12.80
2017,05,29,04,00,12.80
2017,05,29,04,01,12.80
2017,05,29,04,02,12.80
2017,05,29,04,03,12.80
2017,05,29,04,04,12.70
2017,05,29,04,08,12.70
2017,05,29,04,09,12.70
2017,05,29,04,10,12.70
2017,05,29,04,11,12.70
2017,05,29,04,12,12.70
2017,05,29,04,13,12.60
2017,05,29,04,14,12.60
2017,05,29,04,15,12.60
2017,05,29,04,16,12.60
2017,05,29,04,17,12.60
2017,05,29,04,18,12.60
2017,05,29,04,19,12.60
2017,05,29,04,20,12.60
2017,05,29,04,21,12.50
2017,05,29,04,22,12.50
2017,05,29,04,23,12.50
2017,05,29,04,24,12.40
2017,05,29,04,25,12.40
2017,05,29,04,26,12.40
2017,05,29,04,27,12.40
2017,05,29,04,28,12.30
2017,05,29,04,29,12.30
2017,05,29,04,30,12.30
2017,05,29,04,31,12.30
2017,05,29,04,32,12.30
2017,05,29,04,33,12.30
2017,05,29,04,34,12.20
2017,05,29,04,35,12.20
2017,05,29,04,36,12.20
2017,05,29,04,37,12.20
2017,05,29,04,38,12.20
2017,05,29,04,39,12.20
2017,05,29,04,40,12.20
2017,05,29,04,41,12.10
2017,05,29,04,42,12.10
2017,05,29,04,43,12.10
2017,05,29,04,44,12.10
2017,05,29,04,45,12.10
2017,05,29,04,46,12.10
2017,05,29,04,47,12.10
2017,05,29,04,48,12.10
2017,05,29,04,49,12.00
2017,05,29,04,50,12.00
2017,05,29,04,51,12.00
2017,05,29,04,52,12.00
2017,05,29,04,53,12.00
2017,05,29,04,54,12.00
2017,05,29,04,55,12.00
2017,05,29,04,56,12.00
2017,05,29,04,57,12.00
2017,05,29,04,58,12.00
2017,05,29,04,59,12.00
2017,05,29,05,00,12.00
2017,05,29,05,01,12.00
2017,05,29,05,02,12.00
2017,05,29,05,03,12.00
2017,05,29,05,04,12.00
2017,05,29,05,05,12.00
2017,05,29,05,06,11.90
2017,05,29,05,07,11.90
2017,05,29,05,08,11.90
2017,05,29,05,09,11.90
2017,05,29,05,10,11.90
2017,05,29,05,11,11.90
2017,05,29,05,12,11.90
2017,05,29,05,13,11.90
2017,05,29,05,14,11.90
2017,05,29,05,15,11.90
2017,05,29,05,16,11.90
2017,05,29,05,17,11.90
2017,05,29,05,18,11.90
2017,05,29,05,19,11.90
2017,05,29,05,20,11.90
2017,05,29,05,21,11.90
2017,05,29,05,22,11.90
2017,05,29,05,23,11.90
2017,05,29,05,24,11.90
2017,05,29,05,25,11.90
2017,05,29,05,26,11.90
2017,05,29,05,27,11.90
2017,05,29,05,28,12.00
2017,05,29,05,29,12.00
2017,05,29,05,30,12.00
2017,05,29,05,31,12.00
2017,05,29,05,32,12.00
2017,05,29,05,33,12.00
2017,05,29,05,34,12.10
2017,05,29,05,35,12.10
2017,05,29,05,36,12.10
2017,05,29,05,37,12.10
2017,05,29,05,38,12.10
2017,05,29,05,39,12.10
2017,05,29,05,40,12.10
2017,05,29,05,41,12.10
2017,05,29,05,42,12.10
2017,05,29,05,43,12.10
2017,05,29,05,44,12.10
2017,05,29,05,45,12.10
2017,05,29,05,46,12.20
2017,05,29,05,47,12.20
2017,05,29,05,48,12.20
2017,05,29,05,49,12.20
2017,05,29,05,50,12.20
2017,05,29,05,51,12.20
2017,05,29,05,52,12.20
2017,05,29,05,53,12.20
2017,05,29,05,54,12.20
2017,05,29,05,55,12.20
2017,05,29,05,56,12.20
2017,05,29,05,57,12.20
2017,05,29,05,58,12.20
2017,05,29,05,59,12.20
2017,05,29,06,00,12.20
2017,05,29,06,01,12.20
2017,05,29,06,02,12.20
2017,05,29,06,03,12.20
2017,05,29,06,04,12.20
2017,05,29,06,05,12.20
2017,05,29,06,06,12.20
2017,05,29,06,07,12.20
2017,05,29,06,08,12.20
2017,05,29,06,09,12.20
2017,05,29,06,10,12.20
2017,05,29,06,11,12.20
2017,05,29,06,12,12.20
2017,05,29,06,13,12.20
2017,05,29,06,14,12.20
2017,05,29,06,15,12.20
2017,05,29,06,16,12.20
2017,05,29,06,17,12.20
2017,05,29,06,18,12.20
2017,05,29,06,19,12.20
2017,05,29,06,20,12.20
2017,05,29,06,21,12.30
2017,05,29,06,22,12.30
2017,05,29,06,23,12.30
2017,05,29,06,24,12.30
2017,05,29,06,25,12.30
2017,05,29,06,26,12.30
2017,05,29,06,27,12.30
2017,05,29,06,28,12.30
2017,05,29,06,29,12.40
2017,05,29,06,30,12.40
2017,05,29,06,31,12.40
2017,05,29,06,32,12.50
2017,05,29,06,33,12.50
2017,05,29,06,34,12.60
2017,05,29,06,35,12.60
2017,05,29,06,36,12.70
2017,05,29,06,37,12.80
2017,05,29,06,38,12.90
2017,05,29,06,39,12.90
2017,05,29,06,40,13.00
2017,05,29,06,41,13.10
2017,05,29,06,42,13.10
2017,05,29,06,43,13.20
2017,05,29,06,44,13.30
2017,05,29,06,45,13.30
2017,05,29,06,46,13.40
2017,05,29,06,47,13.50
2017,05,29,06,48,13.50
2017,05,29,06,49,13.60
2017,05,29,06,50,13.70
2017,05,29,06,51,13.80
2017,05,29,06,52,13.90
2017,05,29,06,53,13.90
2017,05,29,06,54,14.00
2017,05,29,06,55,14.10
2017,05,29,06,56,14.20
2017,05,29,06,57,14.30
2017,05,29,06,58,14.40
2017,05,29,06,59,14.50
2017,05,29,07,00,14.60
2017,05,29,07,01,14.70
2017,05,29,07,02,14.70
2017,05,29,07,03,14.80
2017,05,29,07,04,14.80
2017,05,29,07,05,14.90
2017,05,29,07,06,14.90
2017,05,29,07,07,14.90
2017,05,29,07,08,15.00
2017,05,29,07,09,15.00
2017,05,29,07,10,15.10
2017,05,29,07,11,15.10
2017,05,29,07,12,15.20
2017,05,29,07,13,15.30
2017,05,29,07,14,15.30
2017,05,29,07,15,15.30
2017,05,29,07,16,15.30
2017,05,29,07,17,15.30
2017,05,29,07,18,15.30
2017,05,29,07,19,15.30
2017,05,29,07,20,15.40
2017,05,29,07,21,15.40
2017,05,29,07,22,15.40
2017,05,29,07,23,15.40
2017,05,29,07,24,15.40
2017,05,29,07,25,15.30
2017,05,29,07,26,15.20
2017,05,29,07,27,15.20
2017,05,29,07,28,15.10
2017,05,29,07,29,15.00
2017,05,29,07,30,14.80
2017,05,29,07,31,14.70
2017,05,29,07,32,14.60
2017,05,29,07,33,14.50
2017,05,29,07,34,14.40
2017,05,29,07,35,14.30
2017,05,29,07,36,14.20
2017,05,29,07,37,14.20
2017,05,29,07,38,14.10
2017,05,29,07,39,14.00
2017,05,29,07,40,14.00
2017,05,29,07,41,14.00
2017,05,29,07,42,13.90
2017,05,29,07,43,13.90
2017,05,29,07,44,13.90
2017,05,29,07,45,13.90
2017,05,29,07,46,13.90
2017,05,29,07,47,13.90
2017,05,29,07,48,13.90
2017,05,29,07,49,13.80
2017,05,29,07,50,13.80
2017,05,29,07,51,13.80
2017,05,29,07,52,13.90
2017,05,29,07,53,13.90
2017,05,29,07,54,13.90
2017,05,29,07,55,13.90
2017,05,29,07,56,14.00
2017,05,29,07,57,14.10
2017,05,29,07,58,14.10
2017,05,29,07,59,14.20
2017,05,29,08,00,14.20
2017,05,29,08,01,14.20
2017,05,29,08,02,14.20
2017,05,29,08,03,14.20
2017,05,29,08,04,14.20
2017,05,29,08,05,14.20
2017,05,29,08,06,14.10
2017,05,29,08,07,14.10
2017,05,29,08,08,14.10
2017,05,29,08,09,14.00
2017,05,29,08,10,14.00
2017,05,29,08,11,14.00
2017,05,29,08,12,13.90
2017,05,29,08,13,13.90
2017,05,29,08,14,13.80
2017,05,29,08,15,13.80
2017,05,29,08,16,13.80
2017,05,29,08,17,13.80
2017,05,29,08,18,13.80
2017,05,29,08,19,13.80
2017,05,29,08,20,13.80
2017,05,29,08,21,13.80
2017,05,29,08,22,13.80
2017,05,29,08,23,13.80
2017,05,29,08,24,13.80
2017,05,29,08,25,13.90
2017,05,29,08,26,14.00
2017,05,29,08,27,14.00
2017,05,29,08,28,14.10
2017,05,29,08,29,14.10
2017,05,29,08,30,14.00
2017,05,29,08,31,14.00
2017,05,29,08,32,14.00
2017,05,29,08,33,14.00
2017,05,29,08,34,14.00
2017,05,29,08,35,14.00
2017,05,29,08,36,13.90
2017,05,29,08,37,13.90
2017,05,29,08,38,13.90
2017,05,29,08,39,13.80
2017,05,29,08,40,13.80
2017,05,29,08,41,13.80
2017,05,29,08,42,13.70
2017,05,29,08,43,13.70
2017,05,29,08,44,13.70
2017,05,29,08,45,13.60
2017,05,29,08,46,13.60
2017,05,29,08,47,13.60
2017,05,29,08,48,13.60
2017,05,29,08,49,13.60
2017,05,29,08,50,13.60
2017,05,29,08,51,13.60
2017,05,29,08,52,13.60
2017,05,29,08,53,13.60
2017,05,29,08,54,13.60
2017,05,29,08,55,13.60
2017,05,29,08,56,13.60
2017,05,29,08,57,13.60
2017,05,29,08,58,13.50
2017,05,29,08,59,13.50
2017,05,29,09,00,13.50
2017,05,29,09,01,13.50
2017,05,29,09,02,13.50
2017,05,29,09,03,13.50
2017,05,29,09,04,13.50
2017,05,29,09,05,13.50
2017,05,29,09,06,13.50
2017,05,29,09,07,13.50
2017,05,29,09,08,13.50
2017,05,29,09,09,13.60
2017,05,29,09,10,13.60
2017,05,29,09,11,13.70
2017,05,29,09,12,13.80
2017,05,29,09,13,13.90
2017,05,29,09,14,13.90
2017,05,29,09,15,14.00
2017,05,29,09,16,14.00
2017,05,29,09,17,14.00
2017,05,29,09,18,14.10
2017,05,29,09,19,14.20
2017,05,29,09,20,14.30
2017,05,29,09,21,14.30
2017,05,29,09,22,14.40
2017,05,29,09,23,14.50
2017,05,29,09,24,14.50
2017,05,29,09,25,14.60
2017,05,29,09,26,14.70
2017,05,29,09,27,14.70
2017,05,29,09,28,14.80
2017,05,29,09,29,14.80
2017,05,29,09,30,14.90
2017,05,29,09,31,15.00
2017,05,29,09,32,15.00
2017,05,29,09,33,15.10
2017,05,29,09,34,15.10
2017,05,29,09,35,15.20
2017,05,29,09,36,15.20
2017,05,29,09,37,15.30
2017,05,29,09,38,15.30
2017,05,29,09,39,15.30
2017,05,29,09,40,15.30
2017,05,29,09,41,15.40
2017,05,29,09,42,15.40
2017,05,29,09,43,15.50
2017,05,29,09,44,15.70
2017,05,29,09,45,15.80
2017,05,29,09,46,15.90
2017,05,29,09,47,16.00
2017,05,29,09,48,16.10
2017,05,29,09,49,16.20
2017,05,29,09,50,16.20
2017,05,29,09,51,16.30
2017,05,29,09,52,16.30
2017,05,29,09,53,16.30
2017,05,29,09,54,16.30
2017,05,29,09,55,16.30
2017,05,29,09,56,16.30
2017,05,29,09,57,16.30
2017,05,29,09,58,16.30
2017,05,29,09,59,16.30
2017,05,29,10,00,16.30
2017,05,29,10,01,16.30
2017,05,29,10,02,16.20
2017,05,29,10,03,16.30
2017,05,29,10,04,16.30
2017,05,29,10,05,16.30
2017,05,29,10,06,16.40
2017,05,29,10,07,16.40
2017,05,29,10,08,16.50
2017,05,29,10,09,16.60
2017,05,29,10,10,16.70
2017,05,29,10,11,16.90
2017,05,29,10,12,17.00
2017,05,29,10,13,17.20
2017,05,29,10,14,17.30
2017,05,29,10,15,17.30
2017,05,29,10,16,17.40
2017,05,29,10,17,17.40
2017,05,29,10,18,17.40
2017,05,29,10,19,17.40
2017,05,29,10,20,17.40
2017,05,29,10,21,17.40
2017,05,29,10,22,17.50
2017,05,29,10,23,17.50
2017,05,29,10,24,17.50
2017,05,29,10,25,17.60
2017,05,29,10,26,17.60
2017,05,29,10,27,17.70
2017,05,29,10,28,17.60
2017,05,29,10,29,17.60
2017,05,29,10,30,17.60
2017,05,29,10,31,17.60
2017,05,29,10,32,17.60
2017,05,29,10,33,17.60
2017,05,29,10,34,17.70
2017,05,29,10,35,17.70
2017,05,29,10,36,17.80
2017,05,29,10,37,17.80
2017,05,29,10,38,17.80
2017,05,29,10,39,17.80
2017,05,29,10,40,17.80
2017,05,29,10,41,17.90
2017,05,29,10,42,17.90
2017,05,29,10,43,17.90
2017,05,29,10,44,17.90
2017,05,29,10,45,18.00
2017,05,29,10,46,18.10
2017,05,29,10,47,18.20
2017,05,29,10,48,18.30
2017,05,29,10,49,18.30
2017,05,29,10,50,18.40
2017,05,29,10,51,18.40
2017,05,29,10,52,18.50
2017,05,29,10,53,18.50
2017,05,29,10,54,18.60
2017,05,29,10,55,18.70
2017,05,29,10,56,18.80
2017,05,29,10,57,18.80
2017,05,29,10,58,18.90
2017,05,29,10,59,18.90
2017,05,29,11,00,19.00
2017,05,29,11,01,19.10
2017,05,29,11,02,19.20
2017,05,29,11,03,19.20
2017,05,29,11,04,19.30
2017,05,29,11,05,19.30
2017,05,29,11,06,19.20
2017,05,29,11,07,19.10
2017,05,29,11,08,19.10
2017,05,29,11,09,19.00
2017,05,29,11,10,18.90
2017,05,29,11,11,18.70
2017,05,29,11,12,18.60
2017,05,29,11,13,18.40
2017,05,29,11,14,18.20
2017,05,29,11,15,18.00
2017,05,29,11,16,17.80
2017,05,29,11,17,17.70
2017,05,29,11,18,17.50
2017,05,29,11,19,17.40
2017,05,29,11,20,17.30
2017,05,29,11,21,17.20
2017,05,29,11,22,17.20
2017,05,29,11,23,17.20
2017,05,29,11,24,17.10
2017,05,29,11,25,17.10
2017,05,29,11,26,17.10
2017,05,29,11,27,17.20
2017,05,29,11,28,17.20
2017,05,29,11,29,17.20
2017,05,29,11,30,17.30
2017,05,29,11,31,17.30
2017,05,29,11,32,17.30
2017,05,29,11,33,17.30
2017,05,29,11,34,17.20
2017,05,29,11,35,17.10
2017,05,29,11,36,17.10
2017,05,29,11,37,17.00
2017,05,29,11,38,17.00
2017,05,29,11,39,17.00
2017,05,29,11,40,17.00
2017,05,29,11,41,17.10
2017,05,29,11,42,17.10
2017,05,29,11,43,17.20
2017,05,29,11,44,17.30
2017,05,29,11,45,17.30
2017,05,29,11,46,17.30
2017,05,29,11,47,17.40
2017,05,29,11,48,17.40
2017,05,29,11,49,17.40
2017,05,29,11,50,17.40
2017,05,29,11,51,17.30
2017,05,29,11,52,17.40
2017,05,29,11,53,17.40
2017,05,29,11,54,17.50
2017,05,29,11,55,17.60
2017,05,29,11,56,17.60
2017,05,29,11,57,17.70
2017,05,29,11,58,17.70
2017,05,29,11,59,17.80
2017,05,29,12,00,17.80
2017,05,29,12,01,17.90
2017,05,29,12,02,17.90
2017,05,29,12,03,17.90
2017,05,29,12,04,17.90
2017,05,29,12,05,17.90
2017,05,29,12,06,17.90
2017,05,29,12,07,18.00
2017,05,29,12,08,18.10
2017,05,29,12,09,18.20
2017,05,29,12,10,18.30
2017,05,29,12,11,18.40
2017,05,29,12,12,18.50
2017,05,29,12,13,18.70
2017,05,29,12,14,18.70
2017,05,29,12,15,18.80
2017,05,29,12,16,18.80
2017,05,29,12,17,18.80
2017,05,29,12,18,18.90
2017,05,29,12,19,18.90
2017,05,29,12,20,18.90
2017,05,29,12,21,19.00
2017,05,29,12,22,19.10
2017,05,29,12,23,19.20
2017,05,29,12,24,19.30
2017,05,29,12,25,19.50
2017,05,29,12,26,19.60
2017,05,29,12,27,19.60
2017,05,29,12,28,19.70
2017,05,29,12,29,19.70
2017,05,29,12,30,19.80
2017,05,29,12,31,19.80
2017,05,29,12,32,19.80
2017,05,29,12,33,19.70
2017,05,29,12,34,19.70
2017,05,29,12,35,19.80
2017,05,29,12,36,19.80
2017,05,29,12,37,19.80
2017,05,29,12,38,19.90
2017,05,29,12,39,20.00
2017,05,29,12,40,20.00
2017,05,29,12,41,20.10
2017,05,29,12,42,20.20
2017,05,29,12,43,20.20
2017,05,29,12,44,20.30
2017,05,29,12,45,20.30
2017,05,29,12,46,20.30
2017,05,29,12,47,20.30
2017,05,29,12,48,20.30
2017,05,29,12,49,20.30
2017,05,29,12,50,20.40
2017,05,29,12,51,20.30
2017,05,29,12,52,20.20
2017,05,29,12,53,20.00
2017,05,29,12,54,19.90
2017,05,29,12,55,19.90
2017,05,29,12,56,19.90
2017,05,29,12,57,19.90
2017,05,29,12,58,19.80
2017,05,29,12,59,19.80
2017,05,29,13,00,19.70
2017,05,29,13,01,19.60
2017,05,29,13,02,19.50
2017,05,29,13,03,19.50
2017,05,29,13,04,19.50
2017,05,29,13,05,19.50
2017,05,29,13,06,19.50
2017,05,29,13,07,19.50
2017,05,29,13,08,19.50
2017,05,29,13,09,19.60
2017,05,29,13,10,19.70
2017,05,29,13,11,19.80
2017,05,29,13,12,19.90
2017,05,29,13,13,19.90
2017,05,29,13,14,19.80
2017,05,29,13,15,19.80
2017,05,29,13,16,19.70
2017,05,29,13,17,19.70
2017,05,29,13,18,19.80
2017,05,29,13,19,19.90
2017,05,29,13,20,20.00
2017,05,29,13,21,20.10
2017,05,29,13,22,20.20
2017,05,29,13,23,20.20
2017,05,29,13,24,20.10
2017,05,29,13,25,20.00
2017,05,29,13,26,19.90
2017,05,29,13,27,19.80
2017,05,29,13,28,19.70
2017,05,29,13,29,19.60
2017,05,29,13,30,19.50
2017,05,29,13,31,19.40
2017,05,29,13,32,19.30
2017,05,29,13,33,19.20
2017,05,29,13,34,19.10
2017,05,29,13,35,19.00
2017,05,29,13,36,18.90
2017,05,29,13,37,18.90
2017,05,29,13,38,18.90
2017,05,29,13,39,18.90
2017,05,29,13,40,18.90
2017,05,29,13,41,18.90
2017,05,29,13,42,18.90
2017,05,29,13,43,19.00
2017,05,29,13,44,19.00
2017,05,29,13,45,19.10
2017,05,29,13,46,19.00
2017,05,29,13,47,18.90
2017,05,29,13,48,18.80
2017,05,29,13,49,18.70
2017,05,29,13,50,18.60
2017,05,29,13,51,18.50
2017,05,29,13,52,18.50
2017,05,29,13,53,18.50
2017,05,29,13,54,18.60
2017,05,29,13,55,18.60
2017,05,29,13,56,18.60
2017,05,29,13,57,18.70
2017,05,29,13,58,18.70
2017,05,29,13,59,18.60
2017,05,29,14,00,18.60
2017,05,29,14,01,18.50
2017,05,29,14,02,18.50
2017,05,29,14,03,18.50
2017,05,29,14,04,18.60
2017,05,29,14,05,18.60
2017,05,29,14,06,18.60
2017,05,29,14,07,18.60
2017,05,29,14,08,18.60
2017,05,29,14,09,18.60
2017,05,29,14,10,18.60
2017,05,29,14,11,18.70
2017,05,29,14,12,18.70
2017,05,29,14,13,18.80
2017,05,29,14,14,18.90
2017,05,29,14,15,19.00
2017,05,29,14,16,19.10
2017,05,29,14,17,19.30
2017,05,29,14,18,19.60
2017,05,29,14,19,19.90
2017,05,29,14,20,20.10
2017,05,29,14,21,20.30
2017,05,29,14,22,20.50
2017,05,29,14,23,20.70
2017,05,29,14,24,20.90
2017,05,29,14,25,21.00
2017,05,29,14,26,21.20
2017,05,29,14,27,21.30
2017,05,29,14,28,21.40
2017,05,29,14,29,21.50
2017,05,29,14,30,21.50
2017,05,29,14,31,21.50
2017,05,29,14,32,21.50
2017,05,29,14,33,21.60
2017,05,29,14,34,21.70
2017,05,29,14,35,21.90
2017,05,29,14,36,22.00
2017,05,29,14,37,22.00
2017,05,29,14,38,22.10
2017,05,29,14,39,22.10
2017,05,29,14,40,22.20
2017,05,29,14,41,22.20
2017,05,29,14,42,22.30
2017,05,29,14,43,22.30
2017,05,29,14,44,22.40
2017,05,29,14,45,22.40
2017,05,29,14,46,22.50
2017,05,29,14,47,22.60
2017,05,29,14,48,22.70
2017,05,29,14,49,22.70
2017,05,29,14,50,22.60
2017,05,29,14,51,22.50
2017,05,29,14,52,22.30
2017,05,29,14,53,22.10
2017,05,29,14,54,21.80
2017,05,29,14,55,21.60
2017,05,29,14,56,21.40
2017,05,29,14,57,21.30
2017,05,29,14,58,21.20
2017,05,29,14,59,21.10
2017,05,29,15,00,21.10
2017,05,29,15,01,21.00
2017,05,29,15,02,20.90
2017,05,29,15,03,20.90
2017,05,29,15,04,20.80
2017,05,29,15,05,20.80
2017,05,29,15,06,20.80
2017,05,29,15,07,20.80
2017,05,29,15,08,20.80
2017,05,29,15,09,20.80
2017,05,29,15,10,20.90
2017,05,29,15,11,20.90
2017,05,29,15,12,21.00
2017,05,29,15,13,21.10
2017,05,29,15,14,21.10
2017,05,29,15,15,21.20
2017,05,29,15,16,21.30
2017,05,29,15,17,21.30
2017,05,29,15,18,21.40
2017,05,29,15,19,21.40
2017,05,29,15,20,21.40
2017,05,29,15,21,21.30
2017,05,29,15,22,21.30
2017,05,29,15,23,21.30
2017,05,29,15,24,21.20
2017,05,29,15,25,21.20
2017,05,29,15,26,21.20
2017,05,29,15,27,21.20
2017,05,29,15,28,21.10
2017,05,29,15,29,21.10
2017,05,29,15,30,21.00
2017,05,29,15,31,20.90
2017,05,29,15,32,20.90
2017,05,29,15,33,20.90
2017,05,29,15,34,20.90
2017,05,29,15,35,20.90
2017,05,29,15,36,20.90
2017,05,29,15,37,21.00
2017,05,29,15,38,21.00
2017,05,29,15,39,21.10
2017,05,29,15,40,21.10
2017,05,29,15,41,21.20
2017,05,29,15,42,21.30
2017,05,29,15,43,21.40
2017,05,29,15,44,21.40
2017,05,29,15,45,21.50
2017,05,29,15,46,21.60
2017,05,29,15,47,21.70
2017,05,29,15,48,21.70
2017,05,29,15,49,21.80
2017,05,29,15,50,21.80
2017,05,29,15,51,21.90
2017,05,29,15,52,22.00
2017,05,29,15,53,22.00
2017,05,29,15,54,22.10
2017,05,29,15,55,22.10
2017,05,29,15,56,22.10
2017,05,29,15,57,22.10
2017,05,29,15,58,22.10
2017,05,29,15,59,22.20
2017,05,29,16,00,22.20
2017,05,29,16,01,22.30
2017,05,29,16,02,22.40
2017,05,29,16,03,22.40
2017,05,29,16,04,22.50
2017,05,29,16,05,22.60
2017,05,29,16,06,22.60
2017,05,29,16,07,22.60
2017,05,29,16,08,22.60
2017,05,29,16,09,22.60
2017,05,29,16,10,22.70
2017,05,29,16,11,22.80
2017,05,29,16,12,22.90
2017,05,29,16,13,23.00
2017,05,29,16,14,23.10
2017,05,29,16,15,23.20
2017,05,29,16,16,23.40
2017,05,29,16,17,23.50
2017,05,29,16,18,23.50
2017,05,29,16,19,23.60
2017,05,29,16,20,23.60
2017,05,29,16,21,23.70
2017,05,29,16,22,23.70
2017,05,29,16,23,23.80
2017,05,29,16,24,23.80
2017,05,29,16,25,23.80
2017,05,29,16,26,23.80
2017,05,29,16,27,23.90
2017,05,29,16,28,23.90
2017,05,29,16,29,24.00
2017,05,29,16,30,24.00
2017,05,29,16,31,24.00
2017,05,29,16,32,24.00
2017,05,29,16,33,24.00
2017,05,29,16,34,24.10
2017,05,29,16,35,24.20
2017,05,29,16,36,24.30
2017,05,29,16,37,24.30
2017,05,29,16,38,24.40
2017,05,29,16,39,24.50
2017,05,29,16,40,24.60
2017,05,29,16,41,24.70
2017,05,29,16,42,24.70
2017,05,29,16,43,24.70
2017,05,29,16,44,24.70
2017,05,29,16,45,24.70
2017,05,29,16,46,24.70
2017,05,29,16,47,24.70
2017,05,29,16,48,24.70
2017,05,29,16,49,24.70
2017,05,29,16,50,24.70
2017,05,29,16,51,24.70
2017,05,29,16,52,24.70
2017,05,29,16,53,24.60
2017,05,29,16,54,24.60
2017,05,29,16,55,24.60
2017,05,29,16,56,24.60
2017,05,29,16,57,24.60
2017,05,29,16,58,24.60
2017,05,29,16,59,24.60
2017,05,29,17,00,24.60
2017,05,29,17,01,24.60
2017,05,29,17,02,24.60
2017,05,29,17,03,24.60
2017,05,29,17,04,24.60
2017,05,29,17,05,24.70
2017,05,29,17,06,24.70
2017,05,29,17,07,24.70
2017,05,29,17,08,24.70
2017,05,29,17,09,24.60
2017,05,29,17,10,24.60
2017,05,29,17,11,24.50
2017,05,29,17,12,24.50
2017,05,29,17,13,24.40
2017,05,29,17,14,24.40
2017,05,29,17,15,24.30
2017,05,29,17,16,24.30
2017,05,29,17,17,24.30
2017,05,29,17,18,24.20
2017,05,29,17,19,24.20
2017,05,29,17,20,24.20
2017,05,29,17,21,24.20
2017,05,29,17,22,24.10